Location: Burleson Fire Department Station 2
(32.5391°N, 97.3075°W)
Time: 00:51:19
(UTC+00:00)

NOAA 15 - Pass Details

Date: 14 December 2025
Orbit: 793 x 810 km, 98.5° (Epoch: 20 January)

Event Time Altitude Azimuth Distance (km) Brightness Sun altitude
Rises 02:13:29 0° 206° (SSW) 3,312 8.2 -34.7°
Reaches altitude 10° 02:16:36 10° 225° (SW) 2,385 7.6 -35.3°
Maximum altitude 02:20:02 17° 266° (W) 1,920 7.2 -36.0°
Drops below altitude 10° 02:23:27 10° 307° (NW) 2,390 7.5 -36.8°
Sets 02:26:37 0° 326° (NNW) 3,322 8.1 -37.4°
